Location: Apollinopolis Magna
(24.9792°N, 32.8772°E)
Time: 19:00:10
(UTC+00:00)

Palapa 6 Rocket - Pass Details

Date: 02 March 2021
Orbit: 485 x 1216 km, 22.7° (Epoch: 09 April)

Event Time Altitude Azimuth Distance (km) Brightness Sun altitude
Rises 18:09:08 0° 269° (W) 3,912 8.3 -32.0°
Reaches altitude 10° 18:11:49 10° 268° (W) 3,025 7.4 -32.6°
Enters shadow 18:19:00 72° 218° (SW) 1,258 4.4 -34.2°
